GFSSE_sfc_30mbdewp_000.txt.gz
Dewpoint
62 67 68 69 70 70 68 69 70 70 70 69 68 67 67 66 66 65 66 65 66 64 63 63 63 65 66 65 64 65 64 67 65 64 65 66 65 67 67 67 67 67 68
63 67 68 69 70 70 70 69 69 70 70 68 68 67 66 65 64 66 64 63 62 61 61 63 64 65 66 66 65 65 64 65 67 67 66 67 67 66 67 67 67 67 67
64 66 67 68 68 69 69 69 69 70 69 69 68 67 66 64 63 66 64 62 61 60 61 63 64 65 67 66 65 64 64 64 64 66 67 66 67 68 66 67 67 68 67
64 65 67 68 68 69 69 70 70 70 69 69 68 67 66 66 66 65 64 62 60 60 62 62 61 64 65 64 64 64 64 64 65 66 67 67 67 67 65 67 68 67 67
64 65 67 67 67 68 68 68 69 70 70 69 69 68 68 66 66 66 64 60 61 60 61 61 63 63 63 62 63 64 63 64 64 65 66 67 67 66 65 66 67 67 67
63 64 66 66 66 67 66 66 66 67 68 68 67 68 67 66 65 65 64 62 62 62 62 62 63 64 65 64 64 64 64 63 63 63 64 65 66 65 66 65 64 66 67
62 63 65 65 65 66 66 66 66 66 67 68 68 67 67 66 65 62 61 63 62 63 62 62 62 61 62 62 61 63 63 63 62 63 63 64 64 65 65 66 65 64 66
62 63 63 64 64 65 65 65 65 66 66 66 67 67 66 65 65 64 63 63 62 63 63 62 63 62 62 61 62 60 60 62 63 63 63 63 63 62 64 65 65 63 65
63 63 62 62 63 62 63 63 64 65 66 65 65 65 65 65 64 63 62 61 60 60 60 60 60 61 62 61 62 62 63 64 63 63 63 63 63 62 62 64 64 63 64
62 62 61 61 60 60 61 62 63 64 65 65 63 62 62 63 62 61 59 59 59 60 59 59 58 58 58 57 57 57 58 60 60 60 60 60 61 62 63 63 64 64 64
61 61 60 60 59 57 58 61 62 63 64 65 63 62 61 59 58 58 58 58 59 59 58 58 58 57 55 54 56 56 55 56 58 58 59 60 60 61 62 64 63 63 64
60 61 60 60 59 57 56 59 60 61 63 64 63 61 59 58 57 57 58 57 58 57 57 57 55 54 50 50 52 54 53 54 55 56 57 58 58 59 60 62 63 63 63
61 62 61 61 61 59 58 59 59 59 60 62 63 62 60 59 57 58 56 57 56 56 54 55 55 55 54 53 54 54 54 55 55 57 57 59 59 58 58 59 60 62 62
59 61 62 62 62 61 60 60 59 59 59 60 60 60 59 58 56 56 56 56 57 56 55 55 55 55 55 54 54 53 53 54 55 57 58 58 59 59 60 60 59 59 61
56 58 57 58 59 58 58 58 58 59 59 60 60 59 58 57 55 55 56 56 57 56 56 55 52 49 47 48 50 51 51 52 53 54 53 52 52 51 51 54 59 59 58
52 52 54 56 57 55 52 53 53 56 57 58 57 57 56 57 56 55 55 56 55 55 54 49 45 43 43 45 45 43 42 44 49 48 45 44 47 49 50 50 51 56 60
47 47 51 54 55 54 51 50 49 50 50 51 52 53 52 54 56 56 55 56 55 53 48 47 45 42 40 39 37 39 40 41 45 41 38 40 42 44 49 53 54 54 56
42 43 50 52 53 53 52 51 51 49 48 46 47 49 50 53 53 51 51 52 53 50 47 47 38 34 35 36 35 35 36 35 35 34 36 36 40 43 49 54 56 57 57
39 41 47 48 50 49 49 50 50 49 48 46 45 47 49 50 50 46 45 46 47 44 40 43 35 35 34 33 33 33 34 33 34 34 33 35 37 40 45 48 50 55 55
36 41 42 43 47 45 42 41 40 38 38 41 41 42 46 48 48 47 45 44 43 40 38 37 34 36 35 33 34 33 33 33 34 33 33 34 37 39 41 43 46 46 47
37 37 35 37 37 36 34 34 34 33 33 34 36 38 40 44 47 47 45 44 44 41 39 37 36 34 34 36 33 31 31 33 33 33 32 36 34 38 38 42 42 43 45
34 33 30 29 30 30 32 32 33 32 32 32 33 34 35 37 41 45 45 42 42 42 40 38 36 34 34 35 31 32 25 27 29 34 34 28 36 36 36 37 36 39 43
30 30 30 30 30 31 33 33 33 33 33 33 32 32 33 35 37 42 43 43 41 41 40 39 37 35 33 35 35 28 29 25 30 29 28 27 30 31 34 32 36 35 36
29 30 31 33 34 35 35 35 35 34 34 34 35 35 36 37 36 37 42 44 41 40 40 40 38 37 34 33 35 37 32 30 17 16 25 31 25 26 28 33 33 34 38
33 34 38 37 36 36 36 36 35 32 35 37 37 37 38 38 38 37 38 39 41 39 39 38 37 36 32 31 24 28 26 31 30 21 18 19 23 27 30 31 33 36 32
36 36 36 35 35 36 36 33 32 32 33 33 33 35 37 38 36 35 38 38 37 35 33 31 30 28 29 30 30 28 27 23 21 23 25 23 22 25 28 29 32 32 33

GFSSE_sfc_30mbdewp_003.txt.gz
Dewpoint
63 67 68 68 68 69 70 69 69 69 69 69 68 68 67 67 67 66 65 64 63 62 61 62 63 65 66 65 65 64 65 66 64 64 66 67 67 68 69 68 68 66 68
65 68 69 69 69 68 69 68 68 68 68 69 68 67 66 66 67 66 65 63 63 62 61 62 63 65 66 67 65 65 64 66 67 66 67 68 67 67 68 68 67 66 68
66 67 68 69 68 68 67 68 68 69 69 68 68 67 65 65 66 66 65 63 62 61 62 63 62 65 67 67 66 66 65 64 65 65 66 59 59 68 68 68 68 68 68
65 67 67 68 69 69 69 69 69 70 69 69 68 67 66 66 66 67 65 62 61 60 61 62 64 63 64 63 63 65 65 65 64 63 60 61 62 67 67 67 68 67 67
64 66 67 68 68 68 69 70 70 71 70 69 69 68 68 67 66 67 64 61 62 62 62 63 63 65 66 66 66 65 64 63 63 64 62 62 63 65 66 67 66 67 67
62 65 67 67 68 68 68 68 68 69 69 68 68 68 67 67 66 65 64 64 63 63 63 63 63 62 63 65 65 65 64 64 64 63 61 62 63 64 66 67 66 66 66
60 64 65 66 67 67 67 67 66 66 67 68 68 67 67 66 65 63 62 63 63 63 63 64 63 62 61 61 61 61 62 63 62 60 62 62 62 64 64 64 65 65 64
59 62 63 66 66 66 66 66 66 66 67 66 66 67 67 66 65 65 64 63 62 61 62 62 63 64 64 64 64 63 63 64 63 63 63 63 64 63 62 62 63 65 64
61 62 63 62 63 64 64 64 65 65 66 65 65 65 65 65 64 63 62 61 60 61 61 60 61 61 61 60 60 60 62 62 63 63 62 62 62 63 62 62 63 63 63
61 61 61 61 60 60 61 62 63 64 65 64 63 62 62 62 61 61 58 59 60 60 60 59 59 58 58 58 58 57 56 58 59 60 60 61 61 62 62 63 63 64 63
60 60 60 60 58 58 59 61 62 63 65 64 62 61 60 59 59 58 59 58 59 59 59 58 57 56 53 54 56 55 54 54 54 54 56 59 59 60 61 62 62 63 64
58 59 59 60 59 57 56 60 61 61 63 64 63 62 60 60 59 59 59 59 58 58 57 57 56 55 51 51 54 55 54 56 55 55 55 60 60 60 60 60 61 62 63
59 59 59 60 60 58 56 59 59 59 61 62 64 63 61 61 61 60 59 58 58 58 56 56 56 57 57 57 56 56 54 54 54 55 57 60 60 60 60 60 60 60 61
60 60 61 61 61 62 61 60 59 59 59 60 61 62 62 61 60 59 58 57 58 58 58 57 58 56 55 55 53 53 51 51 48 51 51 54 53 52 53 55 58 60 60
59 60 61 62 62 63 62 61 60 60 59 60 61 61 61 59 59 58 57 57 58 58 58 57 54 46 44 44 48 47 45 45 47 42 41 47 49 49 48 50 52 55 59
56 58 60 59 60 60 57 59 58 58 60 60 60 61 61 59 58 57 57 57 57 57 57 56 47 42 42 44 45 42 41 42 44 42 37 38 44 48 52 53 54 54 55
55 55 56 57 58 58 55 53 52 52 53 55 56 58 58 58 57 57 57 57 57 57 57 51 46 45 42 42 41 41 41 40 40 39 37 36 38 44 50 53 53 56 55
51 52 53 54 55 56 55 54 53 52 52 51 50 51 52 53 54 55 55 55 55 57 55 51 47 41 36 38 38 36 36 36 37 37 36 38 36 39 42 48 51 51 51
48 48 50 53 53 53 52 52 52 52 51 51 50 48 49 51 52 53 52 51 53 52 52 50 45 41 34 35 35 35 36 34 36 33 35 37 39 40 39 45 48 48 47
45 45 49 49 50 51 48 45 42 42 42 43 43 44 46 47 50 51 50 50 50 47 47 46 43 40 35 34 32 31 35 34 35 35 34 30 37 37 39 43 43 42 45
41 43 44 42 44 43 38 37 36 36 36 37 37 38 40 40 44 47 47 48 49 47 45 45 43 40 37 38 36 34 34 36 35 34 35 33 33 37 41 41 36 34 33
39 42 39 36 36 35 35 36 37 37 37 36 38 39 39 39 39 40 44 44 44 45 46 46 44 40 38 38 32 32 29 30 32 35 34 36 35 37 36 31 31 29 28
36 35 34 35 37 38 38 37 37 37 37 35 33 33 34 39 39 40 40 41 43 44 43 44 45 42 38 37 37 32 30 27 28 34 35 31 37 33 30 26 28 25 29
35 39 40 39 38 37 38 35 35 33 32 34 34 33 35 37 39 39 40 40 41 42 43 43 44 43 42 38 37 36 37 34 29 27 29 29 32 28 27 29 27 26 29
39 39 39 38 38 39 36 35 35 36 36 36 35 33 34 36 38 38 38 39 39 40 40 41 42 42 40 40 37 36 34 30 29 23 23 24 26 26 29 29 26 30 26
39 40 40 38 38 40 37 35 37 38 38 37 35 33 33 34 36 36 36 37 37 36 37 37 37 37 36 35 33 32 30 26 24 25 25 25 28 29 27 26 27 27 28

GFSSE_sfc_30mbdewp_006.txt.gz
Dewpoint
58 64 68 68 68 69 68 68 67 68 69 69 69 68 68 68 66 66 65 64 63 63 62 63 63 64 65 65 65 63 65 64 64 65 66 66 67 68 68 68 66 64 68
60 65 68 68 68 68 68 68 68 68 69 69 68 67 68 68 67 65 64 63 63 62 63 63 63 65 66 67 66 65 65 65 65 65 65 66 67 67 68 68 66 65 66
60 64 65 68 69 69 68 68 68 68 69 68 68 66 65 66 67 66 64 63 62 61 62 63 64 64 65 65 65 66 66 66 64 63 64 55 56 67 67 68 67 67 67
60 63 64 68 69 69 69 69 69 69 69 68 67 67 67 66 67 66 63 62 62 62 63 63 64 65 65 65 65 65 65 64 64 64 58 57 57 66 68 68 67 67 67
58 61 65 68 68 69 70 70 70 70 69 69 68 68 67 67 66 65 64 63 63 63 63 64 63 63 64 66 65 65 64 63 63 62 58 58 57 62 64 67 66 66 66
54 57 64 67 67 68 68 68 68 68 68 68 67 67 67 66 65 62 63 63 63 64 63 63 63 62 62 62 64 65 63 64 63 57 58 59 58 62 63 63 64 64 66
51 55 56 66 66 66 66 66 66 67 67 67 67 67 66 66 65 64 64 64 64 63 62 63 64 64 64 64 63 61 61 63 60 57 58 60 60 62 62 63 63 64 64
52 56 56 63 65 65 66 65 65 66 66 66 66 66 66 65 64 64 63 62 62 61 61 61 61 62 62 62 63 64 64 63 59 59 58 58 64 64 63 63 63 64 64
52 54 56 56 60 64 64 64 65 65 65 64 64 64 65 65 63 63 62 61 61 61 60 60 60 60 60 59 59 59 60 60 59 59 59 58 62 62 62 63 62 63 63
54 53 56 58 57 57 57 62 63 64 65 63 63 61 62 62 61 60 58 59 60 59 59 58 58 57 58 58 57 56 55 56 56 57 57 58 61 61 61 61 62 61 63
54 57 58 57 57 57 55 58 60 62 63 63 62 61 60 57 57 56 57 58 59 58 58 57 56 54 52 54 54 54 53 52 53 52 53 58 59 60 60 61 62 61 62
54 57 58 59 58 58 54 57 57 57 57 59 60 61 58 59 59 58 58 58 57 56 55 55 56 55 53 46 48 53 49 52 50 50 51 60 61 60 60 61 61 61 61
54 56 57 60 61 59 53 55 53 53 55 57 61 62 60 60 58 57 56 54 54 55 51 52 52 50 52 50 47 50 48 49 44 45 52 55 53 54 56 58 60 61 60
52 55 58 59 61 61 55 53 53 54 53 55 56 61 59 57 56 56 54 52 51 51 53 51 51 53 48 45 45 45 44 42 38 41 46 48 49 48 49 51 54 56 59
52 56 59 60 60 58 59 54 55 56 53 55 55 55 58 55 54 53 51 49 49 49 50 51 50 46 40 38 40 40 39 40 41 38 37 40 46 49 51 51 53 54 56
53 55 60 61 59 55 54 56 53 52 51 51 50 50 55 56 52 49 47 45 45 45 47 48 47 44 40 38 37 40 38 38 38 38 34 37 42 49 51 51 53 55 56
50 53 58 59 54 54 52 51 48 45 48 46 46 48 51 51 48 48 45 45 44 45 48 50 50 46 42 37 36 37 38 39 36 37 35 34 38 44 47 50 51 51 51
51 53 56 54 50 50 49 48 47 46 47 46 46 47 49 50 50 49 45 45 44 46 45 46 46 43 41 37 34 34 35 35 35 36 35 34 33 32 43 48 49 48 49
47 51 54 52 43 45 48 47 48 49 46 41 42 41 42 45 46 47 45 44 46 45 44 44 44 43 41 37 34 34 35 34 33 32 32 36 36 33 32 44 46 45 46
47 52 51 46 46 48 47 45 41 41 40 39 38 38 39 40 42 43 43 45 46 46 45 43 43 43 40 39 34 30 32 35 34 33 33 33 32 36 36 36 37 38 38
49 49 46 45 42 40 37 36 35 36 36 37 38 40 41 40 40 41 40 41 42 42 43 46 45 44 44 41 39 35 34 35 37 34 33 32 31 34 36 37 33 31 33
43 43 40 37 38 37 36 38 39 40 38 39 37 38 37 35 35 35 37 38 38 39 40 41 43 44 44 43 40 37 33 32 33 36 34 33 33 33 35 36 32 31 30
39 39 38 39 39 40 38 37 36 36 36 35 35 34 34 34 34 35 36 37 38 38 36 38 40 40 40 41 42 39 35 32 31 31 36 34 34 35 34 32 30 29 29
41 40 39 39 38 38 39 37 38 36 35 36 36 34 34 32 33 34 35 37 37 37 37 37 35 37 39 38 39 40 41 39 36 32 33 35 34 35 34 31 29 30 30
40 41 41 39 39 39 38 39 37 37 37 36 35 33 30 29 31 33 36 37 38 37 37 39 40 40 41 40 39 38 40 39 38 36 33 32 33 32 30 31 32 31 31
40 41 40 38 38 39 39 38 39 40 38 35 32 30 29 30 30 32 36 37 38 38 37 37 39 40 40 39 39 38 37 36 35 34 32 32 32 30 29 31 31 31 31

GFSSE_sfc_30mbdewp_009.txt.gz
Dewpoint
57 64 68 68 69 68 67 67 68 69 70 69 68 68 68 67 66 65 64 63 63 63 64 64 63 64 65 65 66 65 64 65 65 63 64 66 66 68 68 67 67 65 65
59 63 68 69 68 68 68 67 68 68 69 68 67 68 68 67 66 65 64 63 63 62 63 64 64 66 67 67 67 66 66 66 65 65 64 64 66 67 68 67 66 64 66
60 62 65 69 69 69 68 68 68 68 68 67 67 65 66 67 67 65 64 63 62 62 63 63 64 65 66 65 64 65 65 66 66 65 65 54 58 63 67 67 66 64 65
59 61 65 69 70 69 68 69 69 69 68 67 67 67 67 67 66 65 63 63 63 64 64 64 64 64 65 66 65 65 64 64 64 64 58 54 57 63 67 67 66 66 64
58 62 66 68 69 70 70 70 69 69 68 68 68 67 67 67 66 64 63 63 63 64 64 63 63 62 62 62 66 65 65 64 63 62 58 58 60 63 65 66 66 64 65
53 59 66 67 68 68 68 68 68 68 68 67 67 67 66 66 63 62 63 64 64 64 63 63 64 64 64 63 62 63 64 64 65 58 57 62 60 63 63 63 64 63 64
46 51 60 65 66 66 66 65 66 67 67 67 67 66 66 65 64 64 64 63 62 61 61 61 62 62 63 63 64 64 62 61 61 57 57 62 62 63 62 61 62 64 64
48 50 52 61 64 65 65 65 65 66 66 66 66 66 65 64 64 63 62 61 61 61 60 60 60 61 61 61 60 62 62 62 58 57 59 60 63 63 62 63 63 62 63
47 50 51 53 58 62 63 63 64 65 65 64 64 64 64 63 63 62 61 60 60 60 59 59 58 58 59 59 58 57 57 58 59 57 58 61 62 62 62 62 62 62 61
47 50 52 52 52 53 59 62 63 64 64 63 62 61 62 62 61 59 59 59 59 58 58 57 56 56 55 57 56 55 54 55 56 51 53 59 60 61 61 61 61 62 62
48 52 53 52 52 51 49 56 59 61 62 62 61 60 60 57 55 56 57 57 58 57 57 56 55 53 53 54 54 52 52 51 50 48 55 59 60 60 61 61 62 62 62
50 50 55 55 54 52 47 52 52 51 53 55 56 57 55 56 56 55 57 58 58 57 56 56 56 55 54 47 48 52 49 47 45 44 53 58 59 59 60 61 61 61 61
49 49 53 59 56 53 49 49 49 49 50 52 55 57 55 55 54 53 52 52 51 55 49 52 50 49 50 48 44 44 44 44 41 40 51 49 51 52 54 56 58 60 61
47 46 53 58 55 54 51 49 49 49 50 50 53 54 53 52 51 51 49 48 46 45 47 47 48 48 48 43 40 41 41 40 35 36 45 41 44 47 48 51 53 55 57
45 46 50 56 53 50 51 51 51 51 50 52 50 50 51 51 50 49 47 46 44 44 44 45 45 45 43 41 38 39 38 38 39 39 37 39 41 48 50 51 53 54 56
43 47 50 54 52 48 49 50 50 48 46 46 45 46 49 49 49 47 45 44 43 42 43 44 46 47 44 40 38 37 39 37 36 38 36 40 40 49 51 51 53 55 55
44 45 50 53 50 47 49 48 44 43 45 43 43 45 47 47 47 48 46 45 43 44 45 44 44 44 44 43 39 36 38 39 39 38 38 34 39 44 48 50 51 51 51
43 44 48 51 48 46 45 45 43 43 44 44 42 43 45 46 46 46 45 44 45 47 45 44 43 43 43 41 41 38 36 35 35 36 37 36 34 37 44 49 49 49 50
42 44 47 52 42 43 45 44 45 44 43 39 39 39 42 42 43 44 44 44 48 46 47 46 45 44 42 43 41 40 38 36 37 35 35 36 38 34 35 48 48 47 46
42 45 47 49 40 43 44 45 40 39 40 39 39 40 42 41 43 43 42 43 44 43 43 44 46 45 47 45 42 41 41 39 37 38 36 35 35 38 37 38 42 41 44
48 48 47 44 45 42 39 38 36 36 37 39 39 41 41 40 38 37 36 37 38 37 40 43 44 43 45 45 45 45 44 43 41 38 39 37 36 36 38 39 38 35 39
45 46 43 41 39 38 38 39 41 41 39 39 39 38 37 38 37 36 35 35 35 36 39 41 42 42 42 43 43 43 41 41 40 41 39 40 39 37 36 38 39 37 33
41 40 40 40 40 40 39 38 38 37 37 36 37 37 37 37 34 33 33 35 37 38 36 39 39 39 39 40 42 41 38 37 38 38 41 40 39 39 37 37 39 35 34
42 41 40 40 39 39 40 39 39 38 37 38 38 37 36 33 31 31 32 34 37 38 38 37 35 40 40 38 39 36 39 41 39 39 40 41 40 38 40 39 37 34 33
42 42 41 40 39 40 39 40 39 40 40 39 38 36 35 31 32 31 31 34 37 36 37 38 38 38 38 37 36 37 39 39 39 39 39 40 39 39 39 41 38 33 33
42 42 41 39 38 40 41 41 40 41 39 36 35 33 31 32 31 31 32 36 37 37 37 36 37 38 39 39 38 38 38 37 37 37 36 37 38 41 43 40 39 36 35

GFSSE_sfc_30mbdewp_012.txt.gz
Dewpoint
63 65 68 69 69 68 68 69 69 69 70 69 69 68 67 66 65 65 65 64 64 64 65 65 65 66 67 67 67 67 67 67 66 66 64 63 65 67 67 68 65 64 66
64 66 69 69 69 69 69 69 69 69 69 69 69 68 67 67 66 65 64 63 63 64 64 64 65 66 66 66 65 65 66 66 66 66 66 65 65 66 66 67 66 64 65
63 65 67 69 69 69 69 69 69 69 68 67 67 67 67 67 66 64 64 64 64 64 64 64 65 64 64 65 65 65 65 65 65 64 64 63 57 63 64 66 65 66 66
63 65 68 70 69 69 69 69 69 68 67 67 67 67 67 67 66 65 63 63 64 64 63 63 63 62 62 62 65 65 65 65 64 64 63 58 61 64 63 66 66 65 66
65 66 68 70 70 70 70 70 69 69 68 68 68 67 67 66 64 63 63 64 64 63 63 63 64 64 64 63 63 63 65 65 64 63 61 59 63 63 62 63 66 66 64
62 65 67 67 68 68 68 69 69 68 67 67 67 67 66 64 63 64 64 64 62 62 61 62 62 63 63 64 64 64 62 61 62 61 58 62 63 64 64 62 63 64 64
58 62 64 65 66 66 66 66 67 67 67 67 66 66 65 64 64 63 63 62 61 60 60 60 60 61 61 61 61 62 63 63 61 59 60 61 56 52 60 61 62 64 64
54 58 59 63 64 64 64 65 66 66 66 66 66 65 64 64 63 62 61 61 60 60 59 59 58 58 59 59 59 59 58 59 59 58 59 61 59 59 62 60 62 62 62
48 51 55 59 60 62 62 64 65 65 64 63 63 64 63 63 62 61 60 60 59 58 58 57 56 56 56 57 57 57 56 56 57 58 58 62 62 62 62 62 62 63 63
50 51 54 57 59 60 61 62 63 63 63 62 61 61 62 62 61 59 59 58 57 57 56 55 54 52 54 54 56 56 53 54 54 56 59 61 61 61 61 61 62 63 63
49 52 52 52 52 59 59 60 62 62 62 62 61 60 60 61 61 59 56 56 56 56 56 56 55 54 53 53 53 55 55 52 52 48 58 60 59 60 61 61 61 62 62
50 51 55 54 53 51 48 57 61 59 61 61 60 59 60 57 57 55 56 58 57 57 57 57 57 57 57 54 52 53 54 51 47 46 58 58 58 58 59 61 61 61 62
50 50 57 57 55 53 51 49 53 54 53 56 59 57 58 55 58 57 58 59 59 58 57 57 56 56 52 51 47 46 46 45 45 43 52 51 51 52 54 56 57 59 60
49 49 58 57 55 54 54 53 54 54 51 55 54 56 56 55 55 53 52 49 50 48 49 50 49 51 51 47 44 43 43 44 42 42 48 45 43 45 47 51 53 55 57
47 49 55 56 54 55 52 54 54 53 53 54 52 53 53 53 53 53 51 50 49 48 47 48 48 49 49 47 46 42 41 42 42 41 45 41 40 42 47 49 51 53 55
46 50 56 57 52 51 52 52 53 50 52 51 50 49 51 51 51 52 50 50 49 48 49 48 47 49 50 48 46 44 42 41 41 42 42 42 41 44 49 51 52 53 54
43 47 54 57 51 50 51 51 51 46 46 47 48 48 48 49 50 51 50 49 50 51 50 49 49 47 47 47 46 45 44 41 42 41 42 43 41 46 47 51 52 54 53
44 52 60 54 51 49 51 47 47 49 47 46 48 46 48 47 47 49 49 49 51 51 51 50 49 48 47 46 46 46 44 41 41 43 43 41 41 42 47 49 52 51 51
43 47 50 53 50 47 48 47 47 46 46 45 42 47 45 45 47 47 47 49 49 49 49 48 47 49 48 47 46 45 45 45 41 39 40 40 41 40 43 48 51 51 51
45 44 51 52 48 46 49 47 45 43 43 44 45 44 44 46 43 44 43 44 46 44 44 45 46 46 46 46 46 45 46 47 45 44 41 41 41 41 40 45 50 49 49
47 49 50 49 45 44 44 43 43 43 42 43 43 42 41 43 42 42 41 41 41 41 43 43 43 42 43 44 44 43 44 45 47 46 44 42 41 40 42 41 45 43 45
46 45 44 43 42 42 42 43 43 43 42 41 44 43 43 42 40 38 39 40 41 41 42 43 44 42 41 41 41 41 38 39 40 43 43 43 41 40 39 41 42 42 43
44 42 42 42 42 43 43 42 41 41 41 41 41 41 42 41 39 38 37 40 40 41 40 41 42 41 41 41 40 40 37 35 38 39 39 40 43 44 46 45 41 41 41
43 43 42 41 40 42 42 41 41 40 41 42 44 43 42 38 39 37 36 39 40 42 40 42 40 41 41 40 41 41 41 40 39 38 39 41 41 44 46 46 43 41 41
44 44 42 40 40 41 42 42 42 44 44 43 42 41 39 39 37 36 37 39 41 40 41 42 40 42 42 40 39 38 37 37 37 37 35 36 38 40 43 48 48 49 47
43 43 42 40 39 40 42 43 40 39 40 40 40 38 37 36 36 36 38 39 40 41 41 42 42 41 40 40 40 40 38 36 35 34 34 34 35 37 38 41 46 47 46

GFSSE_sfc_30mbdewp_015.txt.gz
Dewpoint
65 68 69 69 69 69 70 70 70 70 70 69 68 67 67 66 65 65 65 65 65 65 65 65 66 66 66 66 66 66 66 66 65 66 65 64 65 64 65 66 66 66 66
67 69 69 69 69 69 70 70 69 70 69 68 68 68 67 66 65 65 64 64 64 64 64 65 65 64 64 65 65 66 66 66 65 65 65 64 63 61 62 63 65 66 67
67 68 69 69 69 70 70 70 69 69 68 67 68 68 67 66 65 64 64 64 64 64 63 63 63 62 62 62 64 66 66 66 65 64 64 61 59 63 61 62 64 66 65
67 69 69 69 69 70 70 69 69 68 68 68 68 67 67 66 64 63 64 65 64 63 63 63 63 63 63 64 63 63 64 65 65 64 62 62 62 63 63 63 61 64 65
68 69 70 70 70 70 70 69 69 69 68 68 68 67 65 63 63 64 65 65 63 62 62 62 62 62 63 63 64 64 63 63 62 61 60 61 62 62 61 61 64 64 64
67 68 69 69 69 69 69 69 68 67 67 67 67 66 64 64 64 64 63 62 61 60 60 60 60 61 61 61 61 61 62 62 62 59 61 60 62 61 57 59 61 62 63
64 65 66 66 67 67 67 67 67 67 67 66 66 65 64 64 63 63 62 61 60 60 59 58 57 58 58 59 59 59 58 58 59 59 61 55 56 60 58 57 62 63 63
62 63 64 65 65 65 65 65 65 65 66 66 65 65 64 63 63 62 61 60 59 58 57 56 56 54 55 56 57 57 56 57 56 57 61 59 57 58 60 63 63 61 62
58 58 61 62 62 62 63 64 64 63 63 63 63 63 62 63 62 61 59 59 57 56 55 54 53 53 54 54 55 56 57 57 55 54 61 60 61 62 63 62 62 62 62
53 56 57 59 60 61 62 62 62 62 61 60 61 62 61 61 60 60 59 58 56 55 55 54 53 54 55 53 52 52 54 56 52 56 60 62 64 62 62 62 62 63 63
52 54 56 57 58 59 59 60 61 61 61 60 61 61 61 61 60 59 59 57 56 56 56 56 56 55 56 55 54 53 55 54 52 57 58 61 61 61 61 61 61 62 62
51 53 53 54 59 56 56 59 60 62 61 61 61 61 60 60 61 59 58 57 57 57 58 57 57 57 57 56 50 49 50 48 45 51 58 59 59 57 58 60 61 62 62
51 55 55 53 53 53 55 57 60 60 61 61 60 57 55 58 57 55 58 58 58 58 57 57 56 56 55 53 48 44 43 42 44 44 55 55 54 53 54 55 57 58 60
51 56 56 54 53 53 54 55 54 53 56 56 56 55 54 55 52 52 49 48 50 49 52 51 49 47 49 49 47 44 42 42 43 43 49 50 48 47 46 49 52 54 56
51 57 56 54 53 52 54 54 53 53 51 55 52 51 52 54 50 51 51 50 49 49 48 47 46 46 48 47 47 46 43 41 41 42 44 47 44 45 45 46 48 51 53
50 57 56 56 55 52 54 53 52 51 51 52 49 51 51 51 50 51 50 50 49 50 51 49 48 49 50 50 49 47 45 43 40 41 41 44 45 43 45 47 48 50 52
49 59 59 58 56 53 51 50 51 43 47 49 48 48 49 50 49 51 50 50 50 52 50 50 50 50 48 48 48 48 47 45 43 41 40 43 44 45 45 49 50 50 52
56 59 60 60 57 55 53 50 49 48 46 47 50 50 48 48 47 46 46 46 48 49 49 48 48 48 48 47 47 47 47 46 45 44 43 42 43 42 45 47 51 52 54
52 58 57 57 56 55 53 48 48 45 44 45 46 45 46 44 43 42 41 41 45 43 44 45 45 45 43 43 43 44 45 46 46 45 44 43 43 43 42 45 48 51 53
52 57 58 58 56 51 48 47 45 44 45 45 44 44 44 42 41 40 40 42 40 41 41 41 41 42 43 43 43 43 44 46 47 47 46 46 43 42 43 43 47 49 51
49 49 47 46 44 45 42 41 41 41 42 43 42 43 41 40 39 39 40 40 42 41 41 41 42 41 41 41 41 41 40 41 41 42 44 45 45 43 43 43 44 46 48
44 43 43 42 42 43 43 44 43 43 43 42 42 44 44 42 40 38 38 40 40 42 41 40 39 41 42 42 39 39 37 37 38 40 41 41 43 46 46 46 44 46 44
42 41 41 40 41 42 42 41 41 41 41 43 44 42 42 39 37 37 38 39 40 41 39 39 41 41 40 41 41 40 38 37 36 39 36 41 39 42 43 47 49 48 45
43 41 41 41 41 41 41 42 41 44 43 43 42 42 39 38 36 38 38 39 40 40 39 42 43 42 41 40 40 39 39 37 33 32 36 35 36 36 41 44 45 48 50
42 41 41 41 41 42 42 42 43 39 40 42 41 38 37 36 37 37 37 38 39 41 41 41 41 40 40 39 40 40 38 36 36 34 30 33 34 35 39 39 44 46 47
43 42 41 41 41 42 43 41 40 41 40 39 38 36 35 37 37 36 39 39 40 40 40 41 41 40 39 39 38 38 37 37 36 36 34 33 32 33 34 36 40 43 46

GFSSE_sfc_30mbdewp_018.txt.gz
Dewpoint
67 69 69 69 70 70 70 70 70 69 69 68 67 66 66 65 65 65 65 66 66 65 65 65 65 64 64 65 65 65 66 65 65 65 65 64 64 63 63 62 64 63 64
68 69 69 69 70 70 70 70 70 70 69 68 67 67 66 65 65 64 65 64 64 64 64 63 63 63 62 62 64 66 66 66 65 65 64 63 62 61 61 62 64 65 65
68 69 69 69 70 70 70 70 70 69 68 68 67 67 66 65 64 64 64 64 64 63 62 62 62 62 63 63 63 63 64 65 64 63 62 61 61 61 60 62 62 64 66
68 68 69 70 70 70 69 69 68 68 67 67 67 67 65 64 63 64 65 64 62 61 60 60 60 60 61 62 63 63 63 63 62 62 61 63 63 62 62 60 61 63 65
68 68 69 69 70 69 69 69 69 69 68 68 67 65 64 63 64 64 63 62 60 59 59 58 58 59 60 60 61 61 61 62 62 60 61 62 61 62 62 62 63 64 64
68 69 69 69 70 70 69 68 68 68 68 67 66 64 64 64 63 62 62 60 59 58 57 56 56 57 58 58 58 58 59 59 59 60 62 63 61 62 59 59 62 63 64
67 68 68 68 69 69 68 67 67 67 67 66 65 65 64 63 62 61 60 60 59 58 57 56 56 55 56 56 56 58 58 59 57 56 60 57 61 60 58 60 61 61 63
65 66 66 66 66 67 66 66 65 65 65 65 65 65 63 63 62 61 60 59 57 55 55 54 53 55 55 55 54 55 56 57 56 54 61 58 59 60 60 61 60 60 62
63 63 64 64 64 64 64 63 63 64 64 64 64 63 62 62 61 60 59 58 56 55 54 53 54 54 55 54 54 53 55 56 53 53 58 60 61 61 61 63 63 63 62
59 61 61 62 62 62 62 62 62 61 62 62 62 61 61 61 61 60 59 58 56 56 55 55 55 55 55 55 55 53 55 53 50 59 61 61 62 61 60 62 62 62 62
55 57 59 59 59 60 61 61 61 61 61 61 61 61 61 61 60 60 60 57 57 57 57 57 58 58 57 56 55 51 50 50 46 52 58 60 62 62 61 61 62 62 62
53 55 56 56 56 58 58 61 60 61 61 61 61 61 61 60 60 59 59 58 59 58 58 59 59 59 58 56 54 47 44 44 44 45 55 59 60 58 57 59 61 61 62
53 55 56 58 56 55 56 59 59 61 61 61 61 61 60 60 60 59 58 58 57 55 56 55 55 53 53 53 52 46 44 41 43 43 53 55 56 55 53 53 55 57 58
53 53 54 57 57 54 55 57 58 59 60 60 59 56 55 53 52 51 49 50 50 49 49 50 48 47 47 49 49 47 45 43 42 43 45 52 50 51 48 47 49 51 54
54 54 54 53 53 54 54 55 55 55 57 56 53 53 54 51 50 51 50 51 50 51 50 49 49 49 49 49 49 49 47 45 42 42 43 47 49 48 48 47 47 48 50
55 55 55 54 54 53 53 53 53 52 54 53 51 51 51 52 50 50 49 49 48 50 50 49 49 49 49 49 48 49 48 48 46 43 42 43 48 48 47 48 47 47 49
56 56 54 55 54 54 53 52 50 47 53 49 49 51 50 51 50 47 45 42 45 46 45 46 47 45 44 44 43 44 46 46 46 45 44 43 43 49 48 47 48 49 49
58 55 57 58 55 54 52 51 50 46 48 49 50 50 48 47 45 43 40 40 44 42 43 43 43 41 42 43 43 43 44 45 44 44 45 45 44 44 45 49 50 50 50
57 57 58 58 55 54 53 50 49 46 46 48 47 47 44 43 42 41 40 41 42 41 42 42 40 42 40 40 40 41 42 42 44 45 45 45 46 45 44 44 50 49 51
58 58 58 58 57 55 50 47 46 46 46 45 44 43 42 42 41 40 41 41 42 41 41 41 40 39 39 41 41 41 41 42 42 43 43 44 45 46 45 44 44 49 51
48 49 48 49 48 50 44 43 43 43 42 43 44 43 43 40 39 39 39 39 41 42 41 40 40 39 40 42 40 38 39 38 41 39 41 42 43 44 42 43 46 45 46
47 46 42 42 43 43 43 45 44 44 44 44 44 41 39 38 38 38 38 39 40 39 38 39 40 41 42 41 40 40 35 36 39 36 36 40 39 40 38 41 44 45 49
41 40 39 40 41 42 42 41 42 43 44 43 43 39 38 37 38 37 38 38 39 40 41 41 42 41 40 41 41 39 36 34 36 35 34 34 36 36 38 41 40 44 47
41 41 41 41 40 41 41 41 41 42 41 42 40 38 37 38 37 37 39 39 40 42 41 41 41 41 40 39 40 40 39 38 34 33 33 33 35 34 36 38 37 44 46
41 41 41 41 41 42 42 42 42 39 41 40 39 36 36 37 37 38 38 39 39 40 39 41 40 39 40 38 39 39 34 33 36 35 30 32 34 34 34 36 36 41 44
42 41 41 41 41 42 43 42 40 41 39 37 36 34 36 36 37 36 37 38 38 38 37 38 38 38 38 37 37 37 37 35 33 33 32 32 32 33 34 34 36 39 42

GFSSE_sfc_30mbdewp_021.txt.gz
Dewpoint
67 69 70 70 70 70 70 69 69 69 68 67 66 66 65 65 65 65 65 65 64 64 63 63 63 62 62 63 65 65 65 65 65 64 64 63 63 64 63 64 63 63 64
68 69 69 70 70 70 69 69 69 69 68 67 66 66 65 65 65 64 64 64 63 63 62 62 62 62 62 63 63 63 64 65 65 64 63 63 62 61 61 64 63 64 64
68 69 69 70 70 70 69 69 69 68 67 67 67 66 65 64 63 64 64 63 60 59 59 59 58 59 59 61 62 63 63 62 63 63 63 61 61 61 60 64 63 66 66
68 68 69 70 70 70 70 69 68 67 67 67 66 65 63 63 64 63 62 60 59 58 57 56 56 57 58 59 59 60 61 62 62 62 61 62 62 61 60 59 63 64 65
67 68 69 69 69 69 69 69 68 68 68 67 65 63 63 64 63 61 61 60 58 56 55 54 54 56 56 57 58 58 59 60 60 61 61 62 61 62 62 61 63 64 65
68 69 69 69 69 69 69 69 68 68 67 66 65 64 64 63 61 60 60 59 57 55 54 54 54 55 55 55 57 58 58 59 57 58 60 62 63 62 63 61 61 62 63
67 68 69 69 69 68 68 67 67 67 66 66 65 64 63 62 61 60 59 58 57 56 55 55 56 56 55 55 56 57 56 57 56 53 59 59 59 62 59 59 61 62 62
67 67 68 68 68 68 67 66 66 65 65 65 64 64 63 62 61 60 58 57 56 55 54 54 55 56 56 56 55 57 56 56 53 53 56 59 57 60 61 60 61 61 61
66 65 66 66 66 65 64 64 64 64 64 63 64 64 63 62 61 60 58 57 56 55 54 55 56 55 56 56 56 54 54 52 48 59 58 61 60 61 61 61 61 61 60
63 63 62 63 63 62 63 62 62 62 62 62 63 62 61 61 60 60 59 58 57 55 56 56 57 57 57 57 56 52 52 48 45 50 58 60 61 60 58 58 60 61 62
59 59 60 60 61 61 61 61 61 61 61 62 61 61 60 60 60 59 60 58 58 57 57 58 59 59 59 57 55 53 46 45 43 44 52 57 60 61 59 59 59 60 62
54 56 58 59 59 59 59 60 60 61 61 61 60 61 60 60 60 59 59 60 60 59 59 59 58 58 56 55 54 51 45 43 42 43 46 53 58 59 56 56 58 60 61
52 55 57 57 57 57 57 59 59 60 60 60 60 60 60 60 59 60 58 56 53 51 52 51 50 49 49 50 51 49 46 45 42 42 44 50 55 56 53 52 53 54 56
52 54 55 56 55 55 57 58 58 59 60 60 60 59 57 54 53 51 50 51 50 51 50 49 49 49 49 49 49 49 49 47 45 43 43 46 50 53 51 50 49 49 52
53 54 55 57 56 54 55 57 57 58 59 59 58 56 55 51 50 51 50 49 48 49 49 47 47 47 45 45 44 45 45 46 47 45 44 45 46 51 52 50 50 49 50
53 54 55 56 55 54 54 56 56 57 57 57 54 53 54 51 51 49 46 44 44 46 45 46 45 43 42 43 42 44 43 45 46 46 45 44 46 47 49 51 50 49 49
53 54 55 55 55 54 53 53 53 53 55 54 51 51 52 51 48 45 41 41 44 44 44 43 42 41 40 41 40 41 43 43 42 44 45 45 45 45 47 50 50 51 51
55 56 59 57 56 54 53 52 48 49 50 50 51 49 47 45 43 41 41 42 43 43 42 41 41 39 39 39 40 41 41 42 43 43 45 45 46 46 46 47 48 49 51
57 58 58 58 57 57 54 50 47 47 47 47 45 44 43 42 41 41 42 42 42 42 41 41 39 40 37 37 41 40 41 40 42 44 42 44 46 44 43 43 44 47 48
57 58 58 58 56 51 47 46 46 45 44 44 43 42 41 40 40 39 39 40 40 38 38 38 38 39 39 40 41 40 39 40 41 39 40 41 42 41 39 40 41 42 45
53 55 55 55 51 45 45 43 43 43 44 45 43 40 39 39 38 38 38 38 39 38 39 40 40 40 41 42 40 39 39 39 37 37 37 40 37 39 38 38 38 40 40
50 48 43 43 43 43 43 46 47 47 46 44 39 38 38 38 38 37 37 38 39 39 40 40 41 40 41 41 40 39 35 34 38 36 35 37 35 37 36 35 39 36 39
41 41 41 41 42 43 44 44 44 44 45 42 39 37 38 38 38 39 39 39 40 41 40 41 40 39 38 39 40 38 34 33 33 35 33 35 35 35 35 35 37 36 42
40 40 39 40 41 42 42 41 41 40 41 42 39 37 38 38 38 39 39 39 40 39 39 41 40 39 38 37 38 39 37 36 31 29 33 32 34 34 35 35 35 36 40
41 41 41 41 42 42 42 42 43 41 41 39 37 36 37 38 38 38 37 37 36 37 37 37 38 37 38 37 36 36 36 35 34 33 30 30 32 33 35 35 35 36 39
42 42 42 43 43 43 43 42 41 40 38 36 35 35 35 38 37 36 37 37 37 37 36 36 37 36 36 36 35 35 36 34 34 34 30 29 30 31 34 34 34 35 36

GFSSE_sfc_30mbdewp_024.txt.gz
Dewpoint
67 69 70 70 70 70 69 69 69 68 67 66 66 66 65 65 65 65 64 64 64 63 62 62 62 62 62 62 63 63 65 65 65 64 64 63 64 62 63 64 62 64 65
68 70 70 70 70 69 69 69 69 68 67 66 66 65 65 64 64 64 63 62 60 59 58 58 58 58 58 60 62 63 63 63 63 64 64 63 62 61 61 64 63 64 65
68 69 69 70 70 69 69 69 68 66 67 66 66 65 64 64 64 63 61 59 58 56 56 56 56 56 56 58 59 60 60 62 62 63 63 62 60 61 60 64 63 66 65
68 69 69 70 70 70 69 68 67 66 66 66 65 63 64 64 62 60 60 59 57 55 54 53 54 54 55 56 57 57 58 60 61 63 61 62 62 62 61 62 63 64 65
68 69 69 69 70 69 69 68 68 68 67 65 64 63 64 61 60 59 59 59 55 53 54 54 54 54 55 57 58 58 58 58 57 57 60 62 62 62 63 62 62 63 62
68 69 69 69 69 69 68 68 68 68 67 65 64 63 62 60 59 59 58 57 55 55 56 56 56 56 56 57 58 58 57 58 55 53 57 60 61 63 63 60 60 61 62
67 68 68 68 68 68 68 68 68 67 66 65 65 64 62 60 59 58 58 57 56 56 56 56 57 58 57 58 58 57 56 55 55 53 55 60 57 60 62 61 61 62 61
66 67 68 68 68 68 68 67 67 66 65 65 65 64 62 61 60 59 58 57 56 56 57 57 57 57 58 58 57 55 55 52 53 58 58 60 61 62 61 62 62 62 60
66 67 67 68 67 67 66 66 65 64 64 64 64 63 63 61 60 59 58 57 56 56 57 58 58 59 59 58 57 55 50 50 44 52 56 59 62 62 58 59 61 62 62
65 65 65 66 65 64 64 63 63 63 63 62 63 62 61 60 60 60 59 58 58 58 58 59 59 59 59 58 57 56 49 45 42 44 50 54 59 60 58 57 58 60 61
62 62 62 62 62 61 61 62 63 62 62 61 62 61 60 59 59 59 60 60 60 60 60 60 59 57 54 53 54 55 49 45 42 43 44 51 55 59 58 57 59 59 59
58 58 59 60 59 59 60 61 60 61 61 61 61 61 60 59 59 59 60 59 57 53 55 54 52 50 49 50 51 50 48 47 45 43 43 49 55 55 53 53 57 57 58
54 56 57 58 58 58 58 59 59 60 60 60 60 59 60 59 59 59 54 51 50 51 49 49 48 49 48 48 48 48 48 48 47 46 45 48 51 52 52 52 53 54 55
52 52 56 57 56 57 57 58 58 59 60 60 60 60 59 56 54 50 50 50 50 49 48 48 47 46 44 44 44 44 44 45 46 46 46 48 50 52 51 51 51 53 54
50 52 54 56 55 55 56 58 58 59 59 59 59 57 55 52 51 50 49 47 47 46 46 45 43 42 41 41 40 40 43 45 45 44 45 46 49 50 51 51 52 52 51
51 53 55 56 56 54 55 56 56 57 58 58 55 54 53 51 50 47 43 44 43 44 44 43 41 40 39 39 37 39 41 42 42 43 45 45 47 49 50 51 52 53 53
53 55 55 56 55 55 54 55 56 54 56 53 52 52 51 49 43 41 42 42 43 43 41 41 40 39 37 38 37 39 41 42 41 43 45 46 46 46 47 47 46 49 51
55 56 58 58 57 56 54 53 50 50 51 50 48 46 44 43 42 42 41 41 42 41 40 39 38 38 37 37 39 41 40 41 41 43 43 45 44 41 40 41 41 41 43
58 57 57 58 56 57 57 51 48 47 46 44 43 42 41 41 40 39 40 41 41 39 38 38 37 39 37 40 41 40 39 39 41 40 41 41 41 39 37 38 38 37 38
58 58 58 58 57 56 49 48 46 44 44 44 42 42 39 40 40 40 39 39 39 38 39 40 39 40 40 41 41 39 39 40 40 38 38 39 38 38 37 37 37 37 36
57 57 57 58 56 46 46 44 43 42 45 45 40 40 40 39 38 37 38 38 40 39 40 41 40 40 40 41 39 36 38 39 37 36 37 37 36 37 37 35 35 38 35
55 55 54 54 50 45 46 47 47 48 46 41 39 39 38 38 38 38 37 38 39 38 38 39 39 38 39 40 37 37 32 33 36 33 36 34 35 35 35 35 35 36 36
44 42 43 44 43 45 47 47 45 45 43 39 37 37 38 38 37 37 38 39 39 39 37 40 39 38 37 38 39 36 31 31 32 32 31 34 33 34 35 35 35 36 36
40 41 41 42 42 43 42 41 42 42 42 41 38 37 37 37 38 38 38 38 37 37 37 38 39 38 37 36 37 37 36 35 30 27 32 32 32 33 33 35 35 36 36
41 41 41 42 42 42 43 43 42 41 39 37 36 36 36 37 38 38 37 36 36 36 36 36 36 36 37 35 34 34 35 35 35 31 27 29 30 31 32 34 35 35 35
42 42 42 42 43 43 42 41 40 39 37 36 36 36 37 37 39 36 37 36 37 36 35 35 36 35 35 35 34 33 34 33 32 32 29 29 30 34 33 36 34 34 35

GFSSE_sfc_30mbdewp_027.txt.gz
Dewpoint
66 67 68 68 70 69 69 69 68 68 68 67 66 66 66 65 65 65 64 64 62 60 59 58 58 58 60 61 62 63 63 63 63 64 64 64 63 62 63 64 62 62 65
67 68 67 69 70 69 69 69 68 68 67 66 65 65 65 65 64 62 62 61 58 56 56 56 56 55 56 57 59 60 61 62 63 63 63 61 61 63 62 64 64 64 65
67 68 67 68 69 69 69 69 68 67 66 66 65 64 64 63 61 60 60 59 57 55 54 54 53 54 55 56 56 57 59 61 62 63 63 60 60 63 61 63 63 63 63
68 68 66 68 69 69 69 68 67 66 66 65 64 64 63 61 60 59 59 58 56 54 54 53 53 55 57 58 58 57 58 59 58 60 60 62 61 63 64 63 62 63 63
67 67 67 68 69 69 69 67 67 67 66 65 64 63 61 59 58 58 58 58 57 57 56 54 56 57 57 58 59 58 58 59 56 56 59 61 61 61 63 61 60 59 63
67 67 68 69 69 69 69 68 68 67 66 65 64 62 59 57 57 58 59 58 57 57 57 57 57 58 59 58 58 57 56 58 56 54 59 61 59 62 62 62 62 62 62
66 67 68 68 69 69 68 68 68 66 66 65 65 63 60 58 58 58 58 58 58 57 58 58 59 59 60 59 56 55 54 51 52 52 59 61 61 63 61 61 62 62 61
66 67 67 68 68 68 68 68 66 65 65 65 65 63 61 60 59 58 58 58 58 59 59 60 60 60 61 60 58 55 52 49 43 45 51 53 62 61 59 60 61 62 62
66 66 67 66 67 67 67 66 65 64 64 64 64 63 61 60 59 59 59 59 59 60 60 60 60 59 59 58 58 55 50 48 44 43 42 45 57 59 58 58 59 61 61
65 65 66 67 66 66 64 65 64 63 63 63 63 62 60 60 60 60 58 60 61 61 61 60 57 53 53 54 56 55 50 48 46 44 43 44 56 54 55 55 57 59 60
64 65 66 66 65 64 63 62 62 63 62 62 62 61 60 59 59 59 60 60 58 58 58 56 54 53 51 51 52 51 50 49 49 47 45 47 53 52 53 54 57 59 58
63 63 63 63 62 61 59 61 61 61 60 61 61 61 60 61 60 60 58 55 54 54 54 53 51 50 47 46 46 47 46 47 47 48 47 52 53 53 53 53 55 56 56
60 60 59 60 60 59 58 60 59 60 60 60 61 61 61 61 61 59 53 52 52 51 49 48 46 44 45 44 43 43 43 43 44 44 44 51 51 52 54 53 53 54 55
55 55 57 58 59 59 58 58 59 59 60 60 61 61 61 59 55 53 52 50 49 47 47 46 44 44 42 40 39 38 41 40 39 39 40 49 50 51 52 53 54 54 55
51 53 56 57 57 57 58 59 59 60 60 61 60 59 56 54 53 51 48 46 46 46 45 43 42 40 39 38 37 38 37 39 40 39 40 47 50 51 52 52 52 53 54
51 53 56 57 56 56 56 58 59 60 60 59 57 56 55 53 51 46 46 44 44 43 43 42 41 39 38 37 35 38 38 39 40 42 40 42 47 46 46 47 47 47 48
51 55 57 57 57 56 56 57 54 55 56 56 56 55 53 48 46 46 45 44 44 44 43 41 39 38 36 35 35 38 37 39 39 42 43 43 41 40 41 42 41 41 41
54 57 58 57 57 58 58 55 53 53 55 53 51 48 46 46 46 45 44 43 43 41 40 38 37 36 36 38 37 35 37 36 41 41 41 40 39 36 36 39 40 39 39
57 58 58 59 59 58 56 54 51 50 47 47 45 44 45 45 44 43 43 41 40 39 40 39 38 39 36 36 32 34 32 33 40 38 39 39 38 37 36 36 36 35 37
58 58 58 59 58 55 52 50 48 48 46 45 45 46 45 42 42 40 40 41 39 38 39 38 37 35 37 37 32 32 31 36 39 37 35 35 35 36 35 35 34 31 33
58 58 58 57 57 53 50 47 46 46 48 47 42 42 40 40 40 40 39 39 39 38 38 38 35 34 31 37 31 28 29 40 39 36 33 34 33 33 34 34 32 32 31
57 58 57 56 51 49 47 47 48 48 46 41 40 40 40 40 39 38 39 39 39 35 37 37 38 33 34 38 33 29 22 23 33 31 31 29 32 34 30 32 33 34 34
55 55 56 53 47 46 48 48 47 44 41 38 38 38 39 39 38 40 40 39 38 37 35 37 38 37 32 34 38 31 26 23 28 27 27 29 30 30 30 28 31 31 34
43 45 47 49 46 47 46 45 45 43 43 43 40 38 38 39 39 39 39 39 38 37 35 34 35 36 34 29 30 32 31 30 24 22 23 24 27 25 27 31 32 34 35
42 43 43 44 43 44 45 45 44 43 41 39 38 39 39 39 39 40 39 38 37 35 35 34 34 33 33 31 29 28 26 26 26 25 22 20 21 23 27 26 31 33 36
43 44 45 44 44 44 43 44 43 41 40 38 38 38 39 39 40 40 38 38 38 36 35 34 36 36 33 33 30 28 23 23 22 22 20 19 18 20 21 24 26 31 33

GFSSE_sfc_30mbdewp_030.txt.gz
Dewpoint
63 64 69 69 69 69 69 68 68 68 68 67 67 66 66 65 65 64 63 62 60 58 57 57 56 56 56 57 59 61 62 63 64 64 64 63 63 62 64 64 63 60 65
65 64 68 69 69 69 69 69 68 68 67 66 66 65 65 64 63 62 61 60 57 56 55 54 54 54 55 56 57 59 60 62 64 63 63 63 64 63 63 64 63 62 64
65 64 65 68 69 69 68 68 68 67 66 65 65 65 63 61 60 59 60 58 56 54 53 54 56 56 57 57 58 59 60 60 60 61 61 55 59 64 64 63 63 62 63
65 64 63 68 69 69 69 69 67 66 65 64 64 63 60 60 59 58 58 58 58 55 54 56 56 56 57 58 58 58 60 60 56 58 56 57 57 63 63 61 59 60 62
65 63 65 68 69 69 68 68 67 67 66 65 64 60 59 58 57 57 59 60 59 56 56 57 56 55 56 57 57 56 56 58 57 53 55 58 56 62 62 62 60 61 62
64 64 67 69 68 68 68 68 67 67 66 65 63 60 57 57 57 58 60 60 58 58 58 58 58 58 58 57 55 54 53 50 52 49 54 58 58 62 61 61 63 63 62
64 64 66 67 67 68 68 68 67 66 66 65 63 61 58 57 58 59 60 60 59 59 59 59 60 60 60 59 56 53 51 49 40 43 48 54 58 61 60 61 60 61 61
64 64 65 67 67 68 68 68 66 65 66 65 64 62 60 59 60 59 59 59 60 60 60 60 60 60 60 59 57 53 50 48 39 37 37 44 57 58 58 59 61 61 60
64 64 65 64 66 68 67 66 65 65 65 64 64 62 61 60 60 60 61 61 61 61 61 59 57 57 57 57 56 53 50 48 43 41 39 39 55 54 54 54 57 59 58
65 65 64 62 62 62 62 64 64 64 64 63 63 61 60 59 59 58 60 61 60 61 59 56 54 53 52 53 53 52 50 49 43 42 41 48 55 53 54 55 55 57 57
65 65 63 60 60 59 57 61 62 63 63 62 61 60 58 55 55 55 59 57 58 58 57 55 52 48 47 46 46 46 47 42 42 42 42 53 54 55 55 55 55 57 58
64 65 62 60 60 58 54 56 56 55 57 58 58 58 57 59 58 57 55 55 54 53 51 49 46 43 42 41 40 40 40 42 40 41 43 51 52 52 54 55 55 55 56
62 59 60 60 58 54 53 54 54 57 58 59 60 60 61 60 59 55 51 51 51 50 46 44 42 42 44 41 39 38 38 36 35 35 43 49 50 51 52 54 55 56 56
53 53 54 56 57 56 53 54 57 57 59 59 60 62 60 59 57 52 50 50 48 46 45 43 42 43 41 40 39 38 37 37 35 34 39 47 50 50 51 52 52 53 53
48 50 52 54 55 56 57 58 59 59 60 61 61 60 58 55 55 51 49 46 45 44 43 43 42 40 39 38 38 38 37 37 37 36 36 48 48 48 48 48 48 48 48
48 52 54 53 55 56 57 58 60 60 60 61 60 60 58 55 53 50 47 45 44 44 43 41 41 40 39 38 37 38 39 38 38 37 35 37 44 44 44 45 45 44 44
50 54 55 56 56 56 58 58 56 55 57 59 59 58 57 53 50 48 46 45 45 43 41 40 39 39 39 38 37 36 35 35 34 36 36 35 37 42 40 42 42 42 41
50 55 57 58 58 58 57 57 58 57 57 57 56 54 50 48 48 47 46 44 42 40 40 40 40 40 37 36 34 30 30 29 28 36 35 38 36 34 36 39 37 38 36
52 57 57 58 58 57 57 57 57 55 53 53 49 48 48 47 46 44 42 42 41 40 41 39 36 33 32 32 31 25 26 26 22 30 34 36 35 34 34 33 35 35 33
55 57 58 58 58 57 56 56 53 52 49 46 45 47 45 44 44 42 42 43 40 38 35 35 34 32 30 30 29 24 27 26 27 33 34 30 32 34 33 32 31 29 32
57 58 58 58 58 56 55 51 48 47 46 47 44 44 43 42 41 42 40 39 37 36 36 35 33 30 29 31 32 25 24 26 35 34 30 30 30 28 31 29 29 29 29
56 57 58 57 57 56 53 50 47 46 46 44 42 43 42 41 41 40 39 37 35 33 35 34 33 30 27 29 32 30 21 21 22 29 27 28 27 30 28 28 27 29 30
56 57 56 56 55 52 49 49 48 48 44 41 41 40 41 41 39 40 38 35 34 33 31 34 33 31 29 28 29 29 26 21 23 23 23 24 26 25 26 25 27 27 30
55 56 55 52 48 48 49 46 46 42 42 44 42 41 40 40 38 36 35 37 37 35 35 33 30 33 30 28 26 26 28 27 23 21 22 21 22 21 21 22 24 24 26
50 52 53 50 46 46 46 45 45 44 43 41 40 39 39 38 39 37 37 38 38 37 35 34 33 33 30 28 26 25 24 22 20 19 17 17 16 17 18 20 19 21 23
44 47 48 45 44 45 45 46 44 43 40 37 36 33 31 32 34 35 39 39 39 37 36 34 34 33 31 29 26 24 22 20 20 19 16 14 13 14 17 17 18 18 19

GFSSE_sfc_30mbdewp_033.txt.gz
Dewpoint
60 62 69 69 69 69 69 68 68 68 68 67 67 66 65 65 64 63 62 61 59 56 55 54 54 54 55 57 59 61 61 63 64 64 64 63 64 64 64 63 63 59 64
61 61 69 69 69 68 68 68 68 68 67 66 66 65 64 63 62 61 60 59 57 54 55 56 57 57 57 59 60 60 61 61 61 61 64 64 64 64 63 62 64 61 63
61 62 64 69 69 69 68 68 67 66 66 65 65 64 61 60 59 59 59 58 56 54 57 56 56 57 57 57 58 60 61 59 59 59 60 62 61 63 62 62 61 62 63
62 62 63 69 69 69 69 68 67 66 65 64 63 61 60 59 58 57 59 60 57 57 56 54 54 54 55 56 55 56 57 58 58 59 53 53 58 62 62 61 61 62 62
63 62 65 68 69 69 69 68 67 66 65 64 61 59 58 57 57 59 61 60 59 58 57 57 56 55 55 56 55 54 52 51 51 53 52 55 57 61 61 60 58 60 62
63 64 67 68 68 68 68 68 66 66 66 64 61 59 57 57 59 60 61 60 59 58 58 58 58 58 58 57 55 52 50 48 49 44 49 55 57 60 61 60 61 60 61
64 66 66 67 67 68 68 67 66 66 66 64 61 59 58 58 59 60 60 60 59 59 59 59 59 59 59 58 55 52 49 48 38 34 40 50 55 58 59 60 60 58 58
66 65 65 66 66 68 68 67 66 66 66 64 62 61 59 59 60 59 60 60 60 60 60 58 58 58 58 57 56 53 51 48 42 41 37 45 56 55 55 55 59 60 58
66 65 64 64 67 67 66 65 65 65 65 64 63 62 61 61 61 61 61 61 61 61 58 57 57 57 56 53 50 48 50 50 47 42 41 48 56 55 55 56 56 57 57
64 64 64 64 61 63 62 64 64 64 64 63 61 60 59 58 57 59 59 58 60 59 57 56 51 50 52 47 43 42 44 47 42 40 46 51 54 55 56 56 56 56 58
63 62 60 57 58 57 58 61 62 63 63 61 59 59 58 53 55 56 56 58 58 57 54 50 46 43 43 46 41 40 44 41 40 39 44 52 52 53 54 56 56 56 56
62 57 56 56 56 54 50 54 53 56 55 56 56 56 56 56 58 54 53 55 53 51 48 44 42 43 44 42 41 41 40 41 37 36 45 49 48 49 52 55 56 57 57
60 53 55 57 56 49 51 51 52 56 56 56 58 59 60 56 57 56 51 51 51 51 48 45 44 43 44 43 42 42 41 40 38 38 46 48 47 47 49 53 54 54 54
53 54 54 55 53 51 50 51 53 55 57 58 59 60 58 58 56 53 48 48 49 46 47 44 44 44 43 42 41 41 41 40 38 38 40 49 49 48 48 49 49 50 49
49 49 50 52 53 54 53 55 56 58 60 61 61 60 56 56 57 53 50 47 47 45 45 45 44 43 43 41 41 40 40 40 39 38 38 48 47 46 46 47 47 47 46
46 48 50 51 53 56 56 58 59 59 59 59 60 61 60 58 58 52 50 47 46 47 46 43 43 42 42 41 40 39 38 35 34 35 36 36 45 45 44 44 44 44 43
47 51 51 54 56 57 59 56 55 55 55 57 59 60 59 58 54 51 51 49 46 44 43 42 42 42 41 38 36 34 32 28 29 27 33 35 38 43 43 42 40 39 38
49 51 54 54 56 58 55 53 55 59 58 58 58 57 54 53 51 48 49 46 44 43 43 43 40 38 36 35 33 33 27 25 27 27 25 32 34 34 38 38 35 35 35
51 54 55 56 58 58 58 58 57 57 56 56 53 52 51 48 48 46 44 44 44 43 42 40 38 36 34 32 27 27 29 25 27 26 27 33 33 31 33 33 35 34 34
51 56 56 58 58 57 57 57 56 55 53 51 48 47 47 45 46 45 45 45 43 40 39 39 38 34 30 27 27 29 31 27 26 30 32 33 30 31 30 31 31 29 32
54 56 57 58 58 57 55 53 52 51 48 48 46 46 46 45 44 44 42 41 41 37 39 38 34 31 29 29 27 27 28 30 28 29 28 30 29 28 29 29 29 28 28
55 56 57 58 58 55 54 52 50 48 47 46 45 45 44 43 43 41 42 39 38 36 33 32 34 33 30 29 28 26 25 23 23 26 27 26 26 26 26 25 26 27 27
55 56 57 57 57 54 51 49 48 48 47 44 44 43 43 43 41 40 39 38 36 33 30 33 33 32 29 29 28 26 23 22 23 23 23 22 25 23 23 21 22 22 24
56 57 56 55 53 51 48 46 45 42 41 42 42 42 42 41 40 38 36 36 36 35 34 33 31 32 31 28 27 25 25 24 22 19 20 20 20 19 21 19 19 20 20
54 53 52 51 48 47 47 46 46 43 45 44 43 43 42 41 40 36 36 37 36 35 34 34 34 33 31 29 27 24 23 22 21 21 21 19 17 15 16 17 18 19 19
51 52 51 46 45 46 46 46 45 45 43 40 38 35 31 30 30 32 33 34 35 34 34 33 33 32 31 32 32 28 26 23 23 23 22 20 17 18 18 19 20 19 20

GFSSE_sfc_30mbdewp_036.txt.gz
Dewpoint
60 67 70 70 69 69 69 69 69 69 68 68 67 66 65 64 63 62 61 59 57 55 57 58 57 58 59 60 61 61 62 62 63 64 64 64 64 63 62 63 62 61 65
61 66 69 69 69 69 69 69 68 68 67 66 66 65 63 63 62 61 60 58 58 57 57 58 58 58 58 58 60 61 62 62 62 64 63 63 63 62 61 63 64 63 63
60 65 67 69 69 68 69 68 68 67 65 65 63 63 62 61 60 61 60 59 59 56 55 54 55 55 55 55 56 57 57 56 57 62 63 62 62 62 62 63 63 63 63
61 62 66 69 69 69 68 68 67 65 65 63 62 61 60 59 60 60 60 60 59 56 55 54 53 53 54 54 54 54 54 52 54 55 60 58 59 62 60 61 62 61 62
60 63 67 68 69 69 68 67 66 66 64 62 61 59 58 59 60 60 62 61 59 57 56 56 56 56 57 56 55 54 53 53 53 55 56 58 59 62 60 59 58 59 62
61 65 68 67 69 68 68 67 67 66 63 62 60 59 59 60 61 61 62 61 59 58 58 58 58 58 58 56 53 51 51 51 50 49 52 58 59 59 60 60 61 60 60
66 66 66 67 68 68 67 66 67 65 63 62 61 61 60 60 60 61 62 61 60 59 58 58 58 58 57 55 52 50 49 50 50 48 51 56 58 57 56 57 59 60 59
65 65 66 67 68 67 67 66 66 65 64 62 61 61 61 61 61 61 62 61 61 59 57 58 58 57 54 49 47 47 47 47 47 47 50 56 57 56 56 57 59 59 59
65 64 65 66 67 66 65 65 65 65 64 63 62 62 62 61 61 61 61 61 60 58 57 55 54 54 53 48 42 42 45 48 47 49 49 54 57 55 56 57 57 58 60
64 65 64 65 65 63 63 64 64 63 62 60 59 59 58 58 59 59 57 60 59 57 54 48 46 46 47 46 42 42 45 43 42 42 51 55 53 53 55 56 57 58 58
63 64 63 62 62 62 63 63 63 63 60 59 58 59 58 56 58 57 56 58 57 54 48 43 41 43 46 45 45 45 44 43 43 41 49 51 48 48 51 56 57 57 58
61 62 60 62 60 58 55 60 60 60 58 57 57 57 59 59 56 55 53 54 52 49 47 42 42 44 46 45 44 44 44 44 42 41 49 49 47 46 48 53 54 54 54
60 60 59 58 58 53 53 56 57 58 59 59 59 60 60 60 57 55 53 52 53 52 52 47 48 47 47 47 45 46 45 43 43 41 49 48 47 47 47 49 50 50 50
54 56 57 56 55 53 54 54 57 59 59 61 60 60 59 60 58 55 55 54 51 51 48 50 49 47 45 45 45 45 45 44 43 41 48 49 47 47 47 47 48 48 47
53 55 55 55 55 54 54 60 60 60 62 61 61 61 61 60 59 56 53 52 51 51 48 45 45 44 46 45 45 43 41 39 37 38 41 47 47 46 46 45 45 45 44
50 53 54 55 56 56 60 60 60 61 61 60 60 61 60 58 58 57 52 50 49 46 46 45 46 47 45 43 40 39 39 36 32 36 35 40 46 46 44 44 42 40 39
48 51 52 55 57 61 60 58 57 56 57 59 60 60 59 57 54 53 51 49 46 46 47 47 45 43 41 40 38 36 36 31 30 34 32 31 45 44 44 40 37 36 35
49 50 54 56 60 58 56 55 57 59 58 58 59 57 54 52 51 51 48 48 47 47 46 45 42 41 39 38 35 33 34 33 32 32 31 35 36 37 42 38 38 34 35
51 53 55 59 59 57 57 58 59 58 57 56 54 53 51 50 49 48 47 48 48 46 44 42 42 40 36 34 30 28 33 33 34 31 33 34 35 35 36 33 36 34 35
53 55 56 59 60 59 59 58 57 55 55 54 52 50 48 47 48 48 47 47 46 43 42 42 41 38 35 34 32 31 32 34 32 34 33 36 34 32 33 34 31 32 31
56 57 58 59 59 58 57 54 53 53 51 50 49 48 48 48 46 45 46 45 43 42 40 40 38 37 36 36 32 31 31 31 28 31 30 29 29 31 31 31 29 29 29
57 57 59 58 58 57 56 54 54 51 50 49 49 48 47 46 45 45 43 42 41 39 37 38 38 37 35 35 32 32 28 28 28 28 29 28 29 28 27 25 26 27 27
57 58 59 58 58 57 55 53 51 50 49 46 47 46 46 45 44 41 41 39 39 38 37 38 37 36 34 34 35 30 27 26 27 27 26 26 28 26 27 25 21 25 25
58 58 59 58 57 57 53 49 48 48 46 45 46 46 45 43 42 40 38 38 39 39 39 39 36 38 35 34 33 32 31 29 25 23 24 25 26 23 23 24 24 24 23
58 58 58 58 56 54 49 48 49 47 47 46 46 45 45 45 43 41 38 39 40 40 40 39 39 39 37 35 33 33 32 30 27 25 24 24 25 24 24 24 25 24 24
57 57 58 56 50 49 48 48 47 47 44 44 43 42 39 36 35 36 36 37 37 37 37 37 37 38 36 36 35 35 33 31 29 27 25 25 25 25 25 24 24 24 25

GFSSE_sfc_30mbdewp_039.txt.gz
Dewpoint
68 70 70 70 70 70 69 69 69 68 68 67 65 65 64 63 62 60 60 61 60 58 58 58 58 58 58 59 60 62 62 63 65 64 63 63 62 61 62 63 64 64 64
68 69 70 69 69 69 69 69 68 67 66 64 64 64 63 62 61 61 61 60 58 56 56 56 55 54 54 54 55 57 58 59 62 64 63 63 63 62 62 63 64 64 64
68 69 69 69 69 69 69 68 67 66 64 63 62 62 62 61 61 62 61 60 58 55 53 53 52 53 53 55 57 58 58 60 59 62 62 61 61 61 60 63 63 63 63
67 68 68 69 69 69 68 67 66 64 63 62 61 61 62 61 61 62 62 60 59 56 55 54 54 55 55 56 57 57 57 60 60 61 60 60 61 60 59 58 57 59 62
65 67 68 69 68 68 67 67 65 64 63 62 61 61 61 60 61 61 62 60 59 56 56 56 55 54 53 52 53 53 56 56 59 58 59 59 59 60 60 59 58 58 59
65 67 68 68 68 68 67 66 64 63 62 61 62 62 61 61 61 61 62 61 58 57 57 56 55 53 51 50 49 49 49 53 52 55 57 59 58 57 57 58 60 59 60
66 67 66 66 67 67 67 65 64 63 62 62 63 62 62 60 60 61 62 61 59 57 56 56 56 53 52 52 48 47 48 53 49 52 56 57 58 56 57 58 58 59 58
65 64 63 64 66 67 66 65 64 63 62 63 62 62 62 62 62 62 62 61 59 57 57 56 55 53 49 48 49 48 48 50 50 52 55 57 59 56 57 58 59 60 61
64 62 63 66 65 66 66 64 63 62 63 62 62 62 61 61 61 61 61 60 58 56 52 51 50 50 47 45 49 47 45 46 46 50 52 55 55 53 55 57 58 59 60
64 63 65 64 64 64 64 63 62 61 61 60 59 59 59 59 59 57 59 60 57 54 48 44 44 47 49 45 49 46 45 44 44 50 52 53 51 50 55 56 57 58 58
63 63 63 62 62 63 63 63 61 60 58 58 58 58 58 59 59 57 56 57 54 51 46 41 42 46 47 47 47 44 44 43 43 48 49 51 48 48 52 54 54 54 53
60 63 63 62 61 61 61 61 61 59 57 57 57 58 57 58 57 53 55 54 52 50 45 42 44 48 46 46 44 45 44 42 42 42 49 49 47 47 49 51 51 51 50
59 61 62 61 59 56 58 59 59 58 56 57 57 57 58 59 57 54 54 54 53 52 50 49 47 46 44 46 45 46 45 43 41 42 49 48 47 46 48 49 49 48 48
60 60 59 60 56 54 57 57 57 58 59 59 60 61 59 60 59 56 52 54 54 51 47 46 45 45 46 45 43 41 41 37 36 35 49 48 47 46 47 47 46 45 44
58 56 56 57 52 53 56 59 59 61 61 61 61 59 57 56 57 55 53 50 48 47 44 44 46 45 43 41 39 38 39 36 31 32 43 48 48 46 46 45 43 41 40
55 54 55 54 54 58 61 61 61 61 61 61 61 59 58 57 54 51 49 48 45 45 47 46 44 42 40 40 37 37 36 32 31 31 35 41 48 46 45 42 40 38 38
54 54 54 54 59 60 59 57 57 57 59 59 60 59 56 55 52 51 48 45 45 46 46 43 41 41 39 38 35 32 35 32 32 34 33 35 47 45 44 39 37 36 36
52 53 54 57 59 57 56 57 58 58 58 59 58 54 51 51 50 49 47 46 47 48 45 43 41 39 36 35 32 31 33 32 34 32 32 33 42 44 45 43 34 36 36
51 53 55 59 57 56 57 58 57 57 57 57 55 52 50 50 48 46 47 47 46 45 42 41 40 38 35 34 32 31 31 33 31 33 31 33 33 35 37 37 37 32 31
53 54 59 58 57 57 57 57 57 56 56 54 53 51 48 48 49 49 48 45 45 43 42 41 39 38 36 36 32 31 32 30 31 32 29 29 31 29 31 31 29 29 32
55 56 59 57 58 57 57 57 55 54 53 51 50 48 48 48 47 48 47 46 43 40 38 39 38 36 35 36 31 33 31 31 28 29 30 28 30 28 27 27 28 30 29
55 59 59 58 58 57 57 56 54 52 50 49 48 49 48 46 46 44 42 41 40 37 38 37 37 36 36 34 31 31 28 28 29 27 28 27 28 27 26 25 23 26 28
56 58 58 58 57 56 57 55 53 50 50 48 48 47 45 45 44 42 41 39 38 38 36 37 36 37 34 34 35 30 28 27 28 27 24 26 26 25 25 26 24 24 24
58 58 59 58 57 56 57 52 49 48 47 46 46 46 45 42 41 41 40 39 39 39 38 39 38 38 36 34 35 33 32 31 28 26 26 25 26 25 25 25 24 24 25
58 59 59 59 58 57 57 50 48 48 47 48 47 45 44 42 42 41 41 40 38 38 38 38 36 38 38 36 34 34 33 32 30 27 26 26 26 26 27 26 24 25 23
59 59 58 57 57 57 52 50 48 48 45 45 45 45 45 44 38 36 36 35 35 34 33 34 35 35 36 36 35 36 34 32 31 30 29 27 26 26 26 26 25 25 24

GFSSE_sfc_30mbdewp_042.txt.gz
Dewpoint
68 70 70 70 70 69 69 69 68 67 66 64 63 63 62 62 62 62 62 61 60 58 57 56 56 55 55 55 57 58 62 65 65 64 64 63 63 62 63 64 64 64 64
68 70 70 70 69 69 69 68 67 66 64 62 63 62 62 63 63 61 60 59 57 54 53 53 54 54 56 57 58 59 59 63 64 64 63 62 61 61 61 62 64 63 63
68 69 69 69 69 69 68 68 66 64 62 61 62 62 62 62 61 61 60 59 57 54 54 54 53 54 55 56 59 63 60 62 63 63 63 61 60 59 58 59 59 61 63
68 68 68 69 69 68 68 66 65 62 61 62 62 62 63 62 60 60 60 59 58 55 54 52 52 53 54 56 56 62 63 63 61 60 60 60 60 60 58 57 56 57 58
67 67 68 68 68 68 67 65 64 63 62 63 63 62 62 60 59 60 61 60 58 55 53 51 52 53 55 55 55 58 58 58 59 59 59 58 57 58 58 58 58 57 58
66 67 68 68 68 67 66 65 63 62 63 63 63 62 61 60 60 60 61 60 58 55 52 52 52 53 53 55 54 56 55 55 55 56 57 58 57 57 58 58 59 58 58
66 67 67 67 67 66 65 64 63 63 64 64 63 63 61 59 59 60 60 59 58 55 54 53 51 52 53 53 54 51 53 54 54 56 57 58 58 56 57 58 58 59 60
64 63 64 64 65 65 64 63 63 63 64 63 63 62 62 61 61 60 59 59 58 56 55 54 51 50 52 51 50 52 49 51 50 52 55 55 57 55 56 58 60 60 59
65 64 64 63 65 64 64 63 63 63 63 63 63 62 62 62 61 61 59 57 55 52 52 51 50 49 49 49 47 46 48 50 49 51 53 54 53 54 54 56 57 57 56
61 61 63 62 62 64 63 62 62 63 62 61 60 60 60 60 60 60 59 57 54 50 48 49 50 49 48 47 46 45 44 46 48 47 49 52 51 52 53 54 54 53 53
60 61 63 61 63 63 63 62 62 61 60 60 59 59 59 59 57 58 57 55 52 49 45 48 50 49 46 47 48 46 44 42 45 47 48 50 48 49 52 52 52 51 51
58 60 62 62 62 62 60 60 59 59 58 58 58 58 58 58 57 55 56 55 52 50 48 50 49 47 47 46 45 45 44 40 39 40 48 49 47 48 50 50 50 50 49
58 59 62 62 61 60 59 60 58 57 57 56 56 56 57 59 56 55 56 55 53 53 48 46 46 46 45 42 41 41 39 37 35 40 49 48 45 46 49 49 48 47 45
59 61 62 60 59 58 58 58 57 56 57 56 57 58 58 58 55 52 51 52 53 48 46 46 46 44 42 40 39 38 38 33 31 35 45 48 48 46 48 47 45 43 43
55 57 60 59 56 56 57 57 57 58 59 61 59 59 60 58 57 55 53 49 47 46 46 45 42 41 40 37 37 34 35 32 31 34 36 46 48 47 47 44 42 40 42
56 58 60 58 54 55 57 58 58 61 62 60 58 56 57 56 53 49 47 45 46 47 46 43 41 39 38 35 33 35 33 32 33 33 33 34 49 47 44 42 39 39 39
57 58 57 56 55 59 60 60 60 60 60 60 59 58 56 53 51 49 46 45 46 46 43 41 40 37 35 34 32 33 32 32 33 32 34 36 49 48 44 39 38 38 38
56 54 55 58 59 59 58 58 58 58 58 58 55 54 53 51 50 48 45 46 47 46 43 41 39 36 34 34 32 31 30 33 32 30 31 34 41 44 45 38 37 35 35
54 53 56 59 58 57 57 57 57 57 57 56 53 51 51 50 49 46 47 47 46 43 42 41 38 36 34 34 31 31 32 31 31 30 29 30 31 33 33 37 34 34 30
53 53 59 57 57 57 57 56 56 56 55 55 53 50 50 49 48 48 46 45 44 43 41 41 37 37 36 35 31 32 32 31 30 29 28 30 28 27 29 28 30 31 32
52 56 58 56 56 56 55 54 54 54 53 53 52 50 48 49 49 48 46 43 41 38 38 39 37 35 35 35 31 33 32 31 29 29 28 28 26 25 26 25 28 29 27
54 57 57 56 56 56 55 55 54 54 52 51 50 48 48 48 47 44 43 40 38 38 37 37 36 36 36 35 32 31 29 29 30 28 27 28 26 26 25 24 23 24 25
56 58 57 57 56 56 56 55 53 51 50 49 48 48 48 47 44 43 41 40 38 38 36 37 37 36 34 35 35 31 29 27 29 28 27 26 26 26 26 25 24 23 24
57 58 58 57 56 56 56 55 52 49 48 48 47 47 46 45 43 42 41 39 39 39 39 40 39 38 37 36 35 34 32 31 29 29 26 26 27 26 26 27 26 25 25
58 58 58 58 57 55 56 54 51 49 49 47 47 46 44 42 42 42 41 40 39 38 36 34 34 35 38 36 34 33 33 33 31 29 28 26 28 27 27 27 26 25 25
58 58 58 58 57 57 56 53 51 49 48 47 46 45 43 44 39 38 36 36 34 33 33 33 32 32 33 35 36 35 34 32 31 31 31 31 28 27 27 27 26 26 26

GFSSE_sfc_30mbdewp_045.txt.gz
Dewpoint
67 69 70 70 69 69 68 68 66 65 64 62 61 62 63 63 63 62 62 60 59 57 56 56 56 58 60 60 61 64 64 64 64 64 62 61 61 61 62 63 64 63 64
68 69 70 69 69 69 68 67 65 64 62 60 61 63 63 62 62 61 59 58 57 55 55 56 56 59 62 62 60 64 63 64 64 63 61 60 59 58 57 59 62 63 63
68 69 69 69 69 68 67 66 64 62 60 59 61 63 63 62 61 60 59 59 58 56 55 54 55 60 62 62 62 64 64 63 63 63 62 60 59 58 57 57 57 56 59
69 68 68 68 68 68 67 65 63 60 60 61 62 62 61 60 61 61 60 59 57 56 54 53 52 55 60 62 64 64 62 61 61 60 59 58 57 57 57 57 57 57 57
68 68 68 68 68 67 66 64 62 62 63 63 63 61 61 59 59 60 60 59 56 55 53 53 53 54 58 60 60 61 60 59 58 58 59 58 57 57 58 58 59 58 57
67 67 67 67 67 66 65 64 63 64 63 63 63 62 60 59 59 60 60 58 57 55 53 53 54 55 55 57 57 56 57 57 57 57 58 58 57 57 58 59 59 59 60
67 67 67 66 66 66 64 63 63 64 64 64 63 62 61 60 59 60 60 59 57 55 53 54 56 56 55 54 54 56 55 55 53 54 55 57 56 56 57 59 59 59 59
66 65 65 64 64 64 64 63 64 64 64 64 63 62 61 61 60 60 59 58 57 56 54 53 53 53 54 53 50 54 52 51 50 52 53 53 56 54 55 56 56 56 55
63 63 63 62 63 64 64 64 64 64 64 64 63 62 62 61 60 59 58 56 55 55 54 52 51 51 50 49 50 49 52 50 47 49 51 53 54 53 53 54 54 53 53
61 61 61 59 61 63 62 63 63 63 63 63 63 62 61 61 60 58 56 55 53 52 54 52 52 50 51 51 50 49 46 48 46 46 49 53 50 52 52 52 52 52 51
58 60 59 60 62 62 61 62 62 63 63 62 61 60 60 60 59 56 55 53 51 52 54 53 51 49 48 49 49 45 41 40 39 46 48 51 48 51 51 52 51 50 49
56 58 59 57 53 60 60 61 61 61 60 59 59 59 58 57 55 57 57 56 52 52 54 51 50 47 42 41 42 41 37 34 37 46 48 50 45 49 50 50 49 47 46
57 58 60 58 62 61 59 60 59 58 57 57 57 57 58 57 55 56 55 53 52 49 46 46 44 42 40 39 37 37 34 32 33 37 48 50 48 44 49 48 47 46 44
56 57 60 61 62 60 59 59 58 56 56 56 56 57 58 56 52 52 51 52 48 46 46 44 43 41 38 36 35 34 32 32 33 34 35 47 49 43 48 47 44 44 43
56 57 61 61 60 58 58 58 57 56 57 59 58 58 58 57 53 52 52 50 46 46 44 42 41 38 36 33 35 32 32 33 33 33 34 38 47 47 47 44 41 43 41
58 59 60 60 58 57 56 57 57 59 60 59 58 59 59 57 55 52 47 46 46 46 43 41 38 35 34 32 33 32 32 32 31 32 35 36 48 49 44 41 40 41 40
55 57 59 59 56 55 56 57 59 61 60 57 57 57 56 54 51 47 46 46 47 44 41 40 37 35 33 33 31 31 32 32 30 31 35 45 47 44 42 39 39 39 37
55 57 59 59 55 56 58 59 59 60 59 58 56 55 53 51 49 46 46 46 46 43 42 39 36 35 34 32 30 30 31 32 31 29 30 34 40 44 40 38 34 31 31
56 57 57 57 57 58 58 58 59 58 58 56 54 53 52 50 48 46 46 48 45 43 41 39 37 35 33 32 31 31 32 30 30 29 29 27 29 30 31 32 37 36 31
56 55 56 58 57 57 57 57 56 56 56 54 52 51 51 49 47 47 47 45 43 42 41 39 37 37 35 33 31 32 33 31 30 28 28 27 25 27 26 28 29 34 29
55 55 58 57 57 57 56 55 54 53 54 53 52 50 50 48 49 46 45 44 42 39 39 37 36 35 35 35 31 33 32 31 29 29 28 26 25 26 25 26 27 26 25
53 56 57 57 56 56 55 54 54 53 53 52 51 50 48 49 48 46 43 41 39 38 37 36 36 36 36 35 32 31 29 29 29 30 27 28 26 26 24 23 23 24 24
53 55 56 56 56 56 55 54 53 51 51 50 49 47 48 48 48 45 42 40 38 37 36 36 36 36 34 35 35 32 30 28 29 30 28 27 26 26 26 25 24 24 25
52 55 56 56 56 56 55 54 52 50 49 49 48 47 48 47 44 42 41 40 39 39 38 40 38 38 37 34 35 35 33 31 29 29 28 26 28 27 27 27 26 26 26
53 56 56 57 56 56 55 55 53 51 49 48 47 47 46 45 43 43 41 40 40 38 35 34 34 35 37 35 35 33 33 33 31 31 29 29 28 29 29 28 28 27 27
55 57 57 57 56 55 55 55 54 52 49 47 46 46 44 42 41 40 38 36 34 34 32 31 31 31 32 34 35 35 34 33 32 30 29 30 30 30 28 28 28 27 27